Time,TemperatureF,DewpointF,PressureIn,WindDirection,WindDirectionDegrees,WindSpeedMPH,WindSpeedGustMPH,Humidity,HourlyPrecipIn,Conditions,Clouds,dailyrainin,SoftwareType,DateUTC
2013-11-10 00:01:00,62.4,61.0,30.13,NE,45,0.0,0.0,95,0.00,,,0.00,WUHU21636XXSP,2013-11-10 05:01:00,
2013-11-10 00:02:00,62.4,61.0,30.13,NE,45,0.0,0.0,95,0.00,,,0.00,WUHU21636XXSP,2013-11-10 05:02:00,
2013-11-10 00:07:00,62.2,60.8,30.13,NE,45,0.0,0.0,95,0.00,,,0.00,WUHU21636XXSP,2013-11-10 05:07:00,
2013-11-10 00:12:00,62.2,60.8,30.13,NE,45,0.0,0.0,95,0.00,,,0.00,WUHU21636XXSP,2013-11-10 05:12:00,
2013-11-10 00:16:00,62.4,61.0,30.13,NE,45,0.0,0.0,95,0.00,,,0.00,WUHU21636XXSP,2013-11-10 05:16:00,
2013-11-10 00:21:00,62.2,60.8,30.13,NE,45,0.0,0.0,95,0.00,,,0.00,WUHU21636XXSP,2013-11-10 05:21:00,
2013-11-10 00:26:00,62.2,60.8,30.13,NE,45,0.0,0.0,95,0.00,,,0.00,WUHU21636XXSP,2013-11-10 05:26:00,
2013-11-10 00:31:00,61.9,60.4,30.13,NE,45,0.0,0.0,95,0.00,,,0.00,WUHU21636XXSP,2013-11-10 05:31:00,
2013-11-10 00:42:00,61.7,60.3,30.13,NE,45,0.0,0.0,95,0.00,,,0.00,WUHU21636XXSP,2013-11-10 05:42:00,
2013-11-10 00:47:00,61.5,60.1,30.12,NE,45,0.0,0.0,95,0.00,,,0.00,WUHU21636XXSP,2013-11-10 05:47:00,
2013-11-10 00:52:00,61.5,60.1,30.13,NE,45,0.0,0.0,95,0.00,,,0.00,WUHU21636XXSP,2013-11-10 05:52:00,
2013-11-10 00:57:00,61.5,60.1,30.13,NE,45,0.0,0.0,95,0.00,,,0.00,WUHU21636XXSP,2013-11-10 05:57:00,
2013-11-10 01:02:00,61.5,60.1,30.13,NE,45,0.0,0.0,95,0.00,,,0.00,WUHU21636XXSP,2013-11-10 06:02:00,
2013-11-10 01:07:00,61.3,59.9,30.13,NE,45,0.0,0.0,95,0.00,,,0.00,WUHU21636XXSP,2013-11-10 06:07:00,
2013-11-10 01:12:00,61.3,59.9,30.12,NE,45,0.0,0.0,95,0.00,,,0.00,WUHU21636XXSP,2013-11-10 06:12:00,
2013-11-10 01:17:00,61.2,59.7,30.13,NE,45,0.0,0.0,95,0.00,,,0.00,WUHU21636XXSP,2013-11-10 06:17:00,
2013-11-10 01:22:00,61.2,59.7,30.13,NE,45,0.0,0.0,95,0.00,,,0.00,WUHU21636XXSP,2013-11-10 06:22:00,
2013-11-10 01:27:00,61.0,59.5,30.13,NE,45,0.0,0.0,95,0.00,,,0.00,WUHU21636XXSP,2013-11-10 06:27:00,
2013-11-10 01:32:00,61.0,59.5,30.13,NE,45,0.0,0.0,95,0.00,,,0.00,WUHU21636XXSP,2013-11-10 06:32:00,
2013-11-10 01:37:00,61.0,59.5,30.13,NE,45,0.0,0.0,95,0.00,,,0.00,WUHU21636XXSP,2013-11-10 06:37:00,
2013-11-10 01:42:00,60.6,59.2,30.13,NE,45,0.0,0.0,95,0.00,,,0.00,WUHU21636XXSP,2013-11-10 06:42:00,
2013-11-10 01:47:00,60.4,59.0,30.12,NE,45,0.0,0.0,95,0.00,,,0.00,WUHU21636XXSP,2013-11-10 06:47:00,
2013-11-10 01:52:00,60.4,59.0,30.13,NE,45,0.0,0.0,95,0.00,,,0.00,WUHU21636XXSP,2013-11-10 06:52:00,
2013-11-10 01:57:00,60.4,59.0,30.12,NE,45,0.0,0.0,95,0.00,,,0.00,WUHU21636XXSP,2013-11-10 06:57:00,
2013-11-10 02:02:00,60.4,59.0,30.12,NE,45,0.0,0.0,95,0.00,,,0.00,WUHU21636XXSP,2013-11-10 07:02:00,
2013-11-10 02:07:00,60.4,59.0,30.12,NE,45,0.0,0.0,95,0.00,,,0.00,WUHU21636XXSP,2013-11-10 07:07:00,
2013-11-10 02:12:00,60.4,59.0,30.12,NE,45,0.0,0.0,95,0.00,,,0.00,WUHU21636XXSP,2013-11-10 07:12:00,
2013-11-10 02:17:00,60.4,59.0,30.12,NE,45,0.0,0.0,95,0.00,,,0.00,WUHU21636XXSP,2013-11-10 07:17:00,
2013-11-10 02:22:00,60.4,59.0,30.12,NE,45,0.0,0.0,95,0.00,,,0.00,WUHU21636XXSP,2013-11-10 07:22:00,
2013-11-10 02:27:00,60.4,59.0,30.12,NE,45,0.0,0.0,95,0.00,,,0.00,WUHU21636XXSP,2013-11-10 07:27:00,
2013-11-10 02:32:00,60.4,59.0,30.12,NE,45,0.0,0.0,95,0.00,,,0.00,WUHU21636XXSP,2013-11-10 07:32:00,
2013-11-10 02:37:00,60.4,59.0,30.12,NE,45,0.0,0.0,95,0.00,,,0.00,WUHU21636XXSP,2013-11-10 07:37:00,
2013-11-10 02:42:00,60.3,58.8,30.12,NE,45,0.0,0.0,95,0.00,,,0.00,WUHU21636XXSP,2013-11-10 07:42:00,
2013-11-10 02:47:00,60.3,58.8,30.12,NE,45,0.0,0.0,95,0.00,,,0.00,WUHU21636XXSP,2013-11-10 07:47:00,
2013-11-10 02:52:00,60.3,58.8,30.12,NE,45,0.0,0.0,95,0.00,,,0.00,WUHU21636XXSP,2013-11-10 07:52:00,
2013-11-10 02:57:00,60.3,58.8,30.12,NE,45,0.0,0.0,95,0.00,,,0.00,WUHU21636XXSP,2013-11-10 07:57:00,
2013-11-10 03:02:00,60.1,58.6,30.12,NE,45,0.0,0.0,95,0.00,,,0.00,WUHU21636XXSP,2013-11-10 08:02:00,
2013-11-10 03:07:00,60.1,58.6,30.12,NE,45,0.0,0.0,95,0.00,,,0.00,WUHU21636XXSP,2013-11-10 08:07:00,
2013-11-10 03:12:00,60.1,58.6,30.13,NE,45,0.0,0.0,95,0.00,,,0.00,WUHU21636XXSP,2013-11-10 08:12:00,
2013-11-10 03:17:00,60.1,58.6,30.13,NE,45,0.0,0.0,95,0.00,,,0.00,WUHU21636XXSP,2013-11-10 08:17:00,
2013-11-10 03:22:00,60.1,58.6,30.12,NE,45,0.0,0.0,95,0.00,,,0.00,WUHU21636XXSP,2013-11-10 08:22:00,
2013-11-10 03:27:00,60.1,58.6,30.12,NE,45,0.0,0.0,95,0.00,,,0.00,WUHU21636XXSP,2013-11-10 08:27:00,
2013-11-10 03:32:00,60.1,58.6,30.12,NE,45,0.0,0.0,95,0.00,,,0.00,WUHU21636XXSP,2013-11-10 08:32:00,
2013-11-10 03:37:00,60.1,58.6,30.13,NE,45,0.0,0.0,95,0.00,,,0.00,WUHU21636XXSP,2013-11-10 08:37:00,
2013-11-10 03:42:00,60.1,58.6,30.12,NE,45,0.0,0.0,95,0.00,,,0.00,WUHU21636XXSP,2013-11-10 08:42:00,
2013-11-10 03:47:00,60.1,58.6,30.12,NE,45,0.0,0.0,95,0.00,,,0.00,WUHU21636XXSP,2013-11-10 08:47:00,
2013-11-10 03:52:00,60.1,58.6,30.12,NE,45,0.0,0.0,95,0.00,,,0.00,WUHU21636XXSP,2013-11-10 08:52:00,
2013-11-10 03:57:00,59.9,58.5,30.12,NE,45,0.0,0.0,95,0.00,,,0.00,WUHU21636XXSP,2013-11-10 08:57:00,
2013-11-10 04:02:00,59.9,58.5,30.12,NE,45,0.0,0.0,95,0.00,,,0.00,WUHU21636XXSP,2013-11-10 09:02:00,
2013-11-10 04:07:00,59.7,58.3,30.12,NE,45,0.0,0.0,95,0.00,,,0.00,WUHU21636XXSP,2013-11-10 09:07:00,
2013-11-10 04:12:00,59.7,58.3,30.12,NE,45,0.0,0.0,95,0.00,,,0.00,WUHU21636XXSP,2013-11-10 09:12:00,
2013-11-10 04:17:00,59.7,58.3,30.12,NE,45,0.0,0.0,95,0.00,,,0.00,WUHU21636XXSP,2013-11-10 09:17:00,
2013-11-10 04:22:00,59.7,58.3,30.12,NE,45,0.0,0.0,95,0.00,,,0.00,WUHU21636XXSP,2013-11-10 09:22:00,
2013-11-10 04:27:00,59.7,58.3,30.12,NE,45,0.0,0.0,95,0.00,,,0.00,WUHU21636XXSP,2013-11-10 09:27:00,
2013-11-10 04:32:00,59.7,58.3,30.13,NE,45,0.0,0.0,95,0.00,,,0.00,WUHU21636XXSP,2013-11-10 09:32:00,
2013-11-10 04:37:00,59.7,58.3,30.12,NE,45,0.0,0.0,95,0.00,,,0.00,WUHU21636XXSP,2013-11-10 09:37:00,
2013-11-10 04:42:00,59.7,58.3,30.12,NE,45,0.0,0.0,95,0.00,,,0.00,WUHU21636XXSP,2013-11-10 09:42:00,
2013-11-10 04:47:00,59.7,58.3,30.12,NE,45,0.0,0.0,95,0.00,,,0.00,WUHU21636XXSP,2013-11-10 09:47:00,
2013-11-10 04:52:00,59.7,58.3,30.12,NE,45,0.0,0.0,95,0.00,,,0.00,WUHU21636XXSP,2013-11-10 09:52:00,
2013-11-10 04:57:00,59.7,58.3,30.12,NE,45,0.0,0.0,96,0.00,,,0.00,WUHU21636XXSP,2013-11-10 09:57:00,
2013-11-10 05:02:00,59.7,58.3,30.12,NE,45,0.0,0.0,95,0.00,,,0.00,WUHU21636XXSP,2013-11-10 10:02:00,
2013-11-10 05:07:00,59.7,58.3,30.13,NE,45,0.0,0.0,96,0.00,,,0.00,WUHU21636XXSP,2013-11-10 10:07:00,
2013-11-10 05:12:00,59.9,58.5,30.13,NE,45,0.0,0.0,95,0.00,,,0.00,WUHU21636XXSP,2013-11-10 10:12:00,
2013-11-10 05:17:00,59.9,58.5,30.13,NE,45,0.0,0.0,95,0.00,,,0.00,WUHU21636XXSP,2013-11-10 10:17:00,
2013-11-10 05:22:00,60.1,58.6,30.13,NE,45,0.0,0.0,95,0.00,,,0.00,WUHU21636XXSP,2013-11-10 10:22:00,
2013-11-10 05:27:00,60.1,58.6,30.13,NE,45,0.0,0.0,95,0.00,,,0.00,WUHU21636XXSP,2013-11-10 10:27:00,
2013-11-10 05:32:00,60.4,59.0,30.13,NE,45,0.0,0.0,95,0.00,,,0.00,WUHU21636XXSP,2013-11-10 10:32:00,
2013-11-10 05:37:00,60.6,59.2,30.13,NE,45,0.0,0.0,95,0.00,,,0.00,WUHU21636XXSP,2013-11-10 10:37:00,
2013-11-10 05:42:00,60.6,59.2,30.13,NE,45,0.0,0.0,95,0.00,,,0.00,WUHU21636XXSP,2013-11-10 10:42:00,
2013-11-10 05:47:00,60.6,59.2,30.14,NE,45,0.0,0.0,95,0.00,,,0.00,WUHU21636XXSP,2013-11-10 10:47:00,
2013-11-10 05:52:00,61.0,59.5,30.14,NE,45,0.0,0.0,95,0.00,,,0.00,WUHU21636XXSP,2013-11-10 10:52:00,
2013-11-10 05:57:00,61.0,59.5,30.14,NE,45,0.0,0.0,95,0.00,,,0.00,WUHU21636XXSP,2013-11-10 10:57:00,
2013-11-10 06:02:00,61.0,59.5,30.14,NE,45,0.0,0.0,95,0.00,,,0.00,WUHU21636XXSP,2013-11-10 11:02:00,
2013-11-10 06:07:00,61.2,59.7,30.15,NE,45,0.0,0.0,95,0.00,,,0.00,WUHU21636XXSP,2013-11-10 11:07:00,
2013-11-10 06:12:00,61.2,59.7,30.15,NE,45,0.0,0.0,95,0.00,,,0.00,WUHU21636XXSP,2013-11-10 11:12:00,
2013-11-10 06:17:00,61.3,60.1,30.15,NE,45,0.0,0.0,96,0.00,,,0.00,WUHU21636XXSP,2013-11-10 11:17:00,
2013-11-10 06:22:00,61.3,60.1,30.15,NE,45,0.0,0.0,96,0.00,,,0.00,WUHU21636XXSP,2013-11-10 11:22:00,
2013-11-10 06:27:00,61.3,60.1,30.15,NE,45,0.0,0.0,96,0.00,,,0.00,WUHU21636XXSP,2013-11-10 11:27:00,
2013-11-10 06:32:00,61.3,60.1,30.15,NE,45,0.0,0.0,96,0.00,,,0.00,WUHU21636XXSP,2013-11-10 11:32:00,
2013-11-10 06:37:00,61.3,60.1,30.15,NE,45,0.0,0.0,96,0.00,,,0.00,WUHU21636XXSP,2013-11-10 11:37:00,
2013-11-10 06:42:00,61.5,60.3,30.15,NE,45,0.0,0.0,96,0.00,,,0.00,WUHU21636XXSP,2013-11-10 11:42:00,
2013-11-10 06:47:00,61.5,60.3,30.15,NE,45,0.0,0.0,96,0.00,,,0.00,WUHU21636XXSP,2013-11-10 11:47:00,
2013-11-10 06:52:00,61.7,60.4,30.15,NE,45,0.0,0.0,96,0.00,,,0.00,WUHU21636XXSP,2013-11-10 11:52:00,
2013-11-10 06:57:00,61.7,60.4,30.15,NE,45,0.0,0.0,96,0.00,,,0.00,WUHU21636XXSP,2013-11-10 11:57:00,
2013-11-10 07:02:00,61.9,60.6,30.15,NE,45,0.0,0.0,96,0.00,,,0.00,WUHU21636XXSP,2013-11-10 12:02:00,
2013-11-10 07:06:00,62.2,61.0,30.15,NE,45,0.0,0.0,96,0.00,,,0.00,WUHU21636XXSP,2013-11-10 12:06:00,
2013-11-10 07:11:00,62.2,61.0,30.15,NE,45,0.0,0.0,96,0.00,,,0.00,WUHU21636XXSP,2013-11-10 12:11:00,
2013-11-10 07:17:00,62.4,61.2,30.15,ENE,67,0.0,0.0,96,0.00,,,0.00,WUHU21636XXSP,2013-11-10 12:17:00,
2013-11-10 07:22:00,62.4,61.2,30.15,ENE,67,0.0,0.0,96,0.00,,,0.00,WUHU21636XXSP,2013-11-10 12:22:00,
2013-11-10 07:27:00,62.8,61.5,30.15,ENE,67,0.0,0.0,96,0.00,,,0.00,WUHU21636XXSP,2013-11-10 12:27:00,
2013-11-10 07:32:00,63.0,61.7,30.15,NE,45,0.0,0.0,96,0.00,,,0.00,WUHU21636XXSP,2013-11-10 12:32:00,
2013-11-10 07:37:00,63.0,61.7,30.16,NE,45,0.0,0.0,96,0.00,,,0.00,WUHU21636XXSP,2013-11-10 12:37:00,
2013-11-10 07:42:00,63.3,61.9,30.17,NNE,22,0.0,0.0,95,0.00,,,0.00,WUHU21636XXSP,2013-11-10 12:42:00,
2013-11-10 07:47:00,63.3,61.9,30.17,NNE,22,0.0,0.0,95,0.00,,,0.00,WUHU21636XXSP,2013-11-10 12:47:00,
2013-11-10 07:52:00,63.7,62.4,30.18,NNE,22,0.0,0.0,96,0.00,,,0.00,WUHU21636XXSP,2013-11-10 12:52:00,
2013-11-10 07:57:00,63.7,62.4,30.18,NNE,22,0.0,0.0,96,0.00,,,0.00,WUHU21636XXSP,2013-11-10 12:57:00,
2013-11-10 08:02:00,63.7,62.4,30.18,NNE,22,0.0,0.0,96,0.00,,,0.00,WUHU21636XXSP,2013-11-10 13:02:00,
2013-11-10 08:07:00,64.0,62.6,30.18,NNE,22,0.0,0.0,95,0.00,,,0.00,WUHU21636XXSP,2013-11-10 13:07:00,
2013-11-10 08:12:00,64.0,62.6,30.18,NNE,22,0.0,0.0,95,0.00,,,0.00,WUHU21636XXSP,2013-11-10 13:12:00,
2013-11-10 08:17:00,64.2,62.8,30.18,NNE,22,0.0,0.0,95,0.00,,,0.00,WUHU21636XXSP,2013-11-10 13:17:00,
2013-11-10 08:22:00,64.6,63.0,30.18,ENE,67,0.0,2.9,95,0.00,,,0.00,WUHU21636XXSP,2013-11-10 13:22:00,
2013-11-10 08:27:00,64.2,62.8,30.18,North,0,0.0,2.9,95,0.00,,,0.00,WUHU21636XXSP,2013-11-10 13:27:00,
2013-11-10 08:32:00,64.6,63.0,30.18,NNE,22,0.0,0.0,95,0.00,,,0.00,WUHU21636XXSP,2013-11-10 13:32:00,
2013-11-10 08:37:00,64.6,63.0,30.18,NNE,22,0.0,0.0,95,0.00,,,0.00,WUHU21636XXSP,2013-11-10 13:37:00,
2013-11-10 08:42:00,64.6,63.0,30.19,NNE,22,0.0,0.0,95,0.00,,,0.00,WUHU21636XXSP,2013-11-10 13:42:00,
2013-11-10 08:47:00,64.9,63.3,30.19,NNE,22,0.0,0.0,95,0.00,,,0.00,WUHU21636XXSP,2013-11-10 13:47:00,
2013-11-10 08:52:00,64.9,63.3,30.18,NNE,22,0.0,0.0,95,0.00,,,0.00,WUHU21636XXSP,2013-11-10 13:52:00,
2013-11-10 08:56:00,64.9,63.3,30.18,NNE,22,0.0,0.0,95,0.00,,,0.00,WUHU21636XXSP,2013-11-10 13:56:00,
2013-11-10 09:02:00,65.1,63.5,30.19,North,0,0.0,0.0,95,0.00,,,0.00,WUHU21636XXSP,2013-11-10 14:02:00,
2013-11-10 09:07:00,65.1,63.5,30.18,North,0,0.0,4.3,95,0.00,,,0.00,WUHU21636XXSP,2013-11-10 14:07:00,
2013-11-10 09:12:00,65.3,63.7,30.18,ENE,67,0.0,4.3,95,0.00,,,0.00,WUHU21636XXSP,2013-11-10 14:12:00,
2013-11-10 09:17:00,65.5,63.9,30.19,NNW,337,0.0,0.0,95,0.00,,,0.00,WUHU21636XXSP,2013-11-10 14:17:00,
2013-11-10 09:22:00,65.5,63.9,30.19,NNE,22,0.0,0.0,95,0.00,,,0.00,WUHU21636XXSP,2013-11-10 14:22:00,
2013-11-10 09:27:00,65.7,64.0,30.19,NE,45,0.0,0.0,95,0.00,,,0.00,WUHU21636XXSP,2013-11-10 14:27:00,
2013-11-10 09:32:00,65.8,64.2,30.19,NE,45,0.0,0.0,95,0.00,,,0.00,WUHU21636XXSP,2013-11-10 14:32:00,
2013-11-10 09:37:00,65.8,64.2,30.19,ENE,67,0.0,0.0,95,0.00,,,0.00,WUHU21636XXSP,2013-11-10 14:37:00,
2013-11-10 09:41:00,66.0,64.8,30.19,NNE,22,0.0,0.0,96,0.00,,,0.00,WUHU21636XXSP,2013-11-10 14:41:00,
2013-11-10 09:46:00,66.0,64.8,30.20,NNE,22,0.0,0.0,96,0.00,,,0.00,WUHU21636XXSP,2013-11-10 14:46:00,
2013-11-10 09:51:00,66.0,64.8,30.20,NE,45,0.0,0.0,96,0.00,,,0.00,WUHU21636XXSP,2013-11-10 14:51:00,
2013-11-10 09:56:00,66.4,65.1,30.20,NE,45,0.0,0.0,96,0.00,,,0.00,WUHU21636XXSP,2013-11-10 14:56:00,
2013-11-10 10:02:00,66.3,65.1,30.20,NNE,22,0.0,0.0,96,0.00,,,0.00,WUHU21636XXSP,2013-11-10 15:02:00,
2013-11-10 10:07:00,66.4,65.2,30.20,NNW,337,0.0,0.0,96,0.00,,,0.00,WUHU21636XXSP,2013-11-10 15:07:00,
2013-11-10 10:12:00,66.4,65.2,30.20,North,0,0.0,0.0,96,0.00,,,0.00,WUHU21636XXSP,2013-11-10 15:12:00,
2013-11-10 10:17:00,66.7,65.5,30.20,NNE,22,0.0,0.0,96,0.00,,,0.00,WUHU21636XXSP,2013-11-10 15:17:00,
2013-11-10 10:22:00,66.6,65.1,30.20,NE,45,0.0,0.0,95,0.00,,,0.00,WUHU21636XXSP,2013-11-10 15:22:00,
2013-11-10 10:27:00,66.4,64.6,30.20,NE,45,0.0,0.0,94,0.00,,,0.00,WUHU21636XXSP,2013-11-10 15:27:00,
2013-11-10 10:32:00,66.8,65.0,30.20,NE,45,0.0,0.0,94,0.00,,,0.00,WUHU21636XXSP,2013-11-10 15:32:00,
2013-11-10 10:37:00,66.8,64.7,30.20,NW,315,0.0,0.0,93,0.00,,,0.00,WUHU21636XXSP,2013-11-10 15:37:00,
2013-11-10 10:42:00,66.7,64.3,30.19,North,0,0.0,0.0,92,0.00,,,0.00,WUHU21636XXSP,2013-11-10 15:42:00,
2013-11-10 10:47:00,66.5,63.8,30.19,North,0,0.0,0.0,91,0.00,,,0.00,WUHU21636XXSP,2013-11-10 15:47:00,
2013-11-10 10:52:00,66.5,63.5,30.19,NNE,22,0.0,3.6,90,0.00,,,0.00,WUHU21636XXSP,2013-11-10 15:52:00,
2013-11-10 10:57:00,66.7,63.7,30.19,NNE,22,0.0,3.6,90,0.00,,,0.00,WUHU21636XXSP,2013-11-10 15:57:00,
2013-11-10 11:02:00,66.9,63.5,30.19,NW,315,0.0,0.0,89,0.00,,,0.00,WUHU21636XXSP,2013-11-10 16:02:00,
2013-11-10 11:07:00,67.3,63.6,30.19,WNW,292,0.0,0.0,88,0.00,,,0.00,WUHU21636XXSP,2013-11-10 16:07:00,
2013-11-10 11:12:00,67.6,63.6,30.18,NNE,22,0.0,0.0,87,0.00,,,0.00,WUHU21636XXSP,2013-11-10 16:12:00,
2013-11-10 11:17:00,67.9,63.5,30.18,NNE,22,0.0,0.0,86,0.00,,,0.00,WUHU21636XXSP,2013-11-10 16:17:00,
2013-11-10 11:22:00,67.7,63.1,30.18,NE,45,0.0,0.0,85,0.00,,,0.00,WUHU21636XXSP,2013-11-10 16:22:00,
2013-11-10 11:27:00,67.9,62.9,30.18,North,0,0.0,0.0,84,0.00,,,0.00,WUHU21636XXSP,2013-11-10 16:27:00,
2013-11-10 11:32:00,68.6,63.3,30.17,ESE,112,0.0,2.9,83,0.00,,,0.00,WUHU21636XXSP,2013-11-10 16:32:00,
2013-11-10 11:37:00,70.0,63.6,30.17,North,0,0.0,7.9,80,0.00,,,0.00,WUHU21636XXSP,2013-11-10 16:37:00,
2013-11-10 11:42:00,70.4,63.6,30.17,ENE,67,0.0,7.9,79,0.00,,,0.00,WUHU21636XXSP,2013-11-10 16:42:00,
2013-11-10 11:47:00,69.8,63.4,30.17,ENE,67,3.7,7.9,80,0.00,,,0.00,WUHU21636XXSP,2013-11-10 16:47:00,
2013-11-10 11:52:00,70.1,63.4,30.17,ENE,67,2.3,7.9,79,0.00,,,0.00,WUHU21636XXSP,2013-11-10 16:52:00,
2013-11-10 11:57:00,68.6,62.6,30.17,NNW,337,0.0,7.0,81,0.00,,,0.00,WUHU21636XXSP,2013-11-10 16:57:00,
2013-11-10 12:02:00,67.9,61.9,30.16,NNW,337,0.0,4.4,81,0.00,,,0.00,WUHU21636XXSP,2013-11-10 17:02:00,
2013-11-10 12:07:00,68.8,62.8,30.16,North,0,0.0,7.9,81,0.00,,,0.00,WUHU21636XXSP,2013-11-10 17:07:00,
2013-11-10 12:12:00,69.5,62.5,30.16,North,0,2.8,7.9,78,0.00,,,0.00,WUHU21636XXSP,2013-11-10 17:12:00,
2013-11-10 12:17:00,69.4,62.0,30.15,NE,45,3.7,7.2,77,0.00,,,0.00,WUHU21636XXSP,2013-11-10 17:17:00,
2013-11-10 12:22:00,69.2,61.8,30.15,ENE,67,0.0,7.2,77,0.00,,,0.00,WUHU21636XXSP,2013-11-10 17:22:00,
2013-11-10 12:27:00,68.3,61.6,30.14,North,0,0.0,8.7,79,0.00,,,0.00,WUHU21636XXSP,2013-11-10 17:27:00,
2013-11-10 12:32:00,68.2,61.6,30.14,East,90,4.7,8.7,79,0.00,,,0.00,WUHU21636XXSP,2013-11-10 17:32:00,
2013-11-10 12:37:00,68.7,61.7,30.14,ENE,67,4.4,8.3,78,0.00,,,0.00,WUHU21636XXSP,2013-11-10 17:37:00,
2013-11-10 12:42:00,69.3,61.9,30.14,NNE,22,0.0,7.9,77,0.00,,,0.00,WUHU21636XXSP,2013-11-10 17:42:00,
2013-11-10 12:47:00,68.9,61.5,30.13,NNE,22,0.0,6.3,77,0.00,,,0.00,WUHU21636XXSP,2013-11-10 17:47:00,
2013-11-10 12:52:00,68.7,61.3,30.13,NNE,22,0.0,7.6,77,0.00,,,0.00,WUHU21636XXSP,2013-11-10 17:52:00,
2013-11-10 12:57:00,69.3,61.9,30.13,NNE,22,0.0,7.6,77,0.00,,,0.00,WUHU21636XXSP,2013-11-10 17:57:00,
2013-11-10 13:02:00,69.5,62.1,30.13,North,0,0.0,6.9,77,0.00,,,0.00,WUHU21636XXSP,2013-11-10 18:02:00,
2013-11-10 13:07:00,69.5,62.1,30.12,NNE,22,1.7,6.9,77,0.00,,,0.00,WUHU21636XXSP,2013-11-10 18:07:00,
2013-11-10 13:12:00,69.6,61.4,30.12,North,0,3.6,5.2,75,0.00,,,0.00,WUHU21636XXSP,2013-11-10 18:12:00,
2013-11-10 13:17:00,69.6,61.1,30.12,NNE,22,2.1,7.9,74,0.00,,,0.00,WUHU21636XXSP,2013-11-10 18:17:00,
2013-11-10 13:22:00,70.1,61.6,30.11,NE,45,3.1,7.9,74,0.00,,,0.00,WUHU21636XXSP,2013-11-10 18:22:00,
2013-11-10 13:27:00,70.4,61.8,30.11,NE,45,2.5,7.6,74,0.00,,,0.00,WUHU21636XXSP,2013-11-10 18:27:00,
2013-11-10 13:32:00,70.5,61.5,30.11,ENE,67,1.3,7.2,73,0.00,,,0.00,WUHU21636XXSP,2013-11-10 18:32:00,
2013-11-10 13:37:00,70.4,60.7,30.11,NNW,337,0.5,9.0,71,0.00,,,0.00,WUHU21636XXSP,2013-11-10 18:37:00,
2013-11-10 13:42:00,70.5,60.4,30.11,East,90,2.6,9.0,70,0.00,,,0.00,WUHU21636XXSP,2013-11-10 18:42:00,
2013-11-10 13:47:00,70.8,59.9,30.11,NNE,22,1.2,7.0,68,0.00,,,0.00,WUHU21636XXSP,2013-11-10 18:47:00,
2013-11-10 13:52:00,70.9,60.4,30.11,NE,45,0.0,10.6,69,0.00,,,0.00,WUHU21636XXSP,2013-11-10 18:52:00,
2013-11-10 13:57:00,71.2,60.7,30.11,NE,45,1.0,10.6,69,0.00,,,0.00,WUHU21636XXSP,2013-11-10 18:57:00,
2013-11-10 14:02:00,71.0,60.9,30.11,NNE,22,0.0,6.5,70,0.00,,,0.00,WUHU21636XXSP,2013-11-10 19:02:00,
2013-11-10 14:07:00,70.9,60.8,30.10,North,0,0.0,6.5,70,0.00,,,0.00,WUHU21636XXSP,2013-11-10 19:07:00,
2013-11-10 14:12:00,71.5,61.8,30.10,NE,45,0.0,8.5,71,0.00,,,0.00,WUHU21636XXSP,2013-11-10 19:12:00,
2013-11-10 14:17:00,71.9,61.7,30.10,NE,45,3.3,8.5,70,0.00,,,0.00,WUHU21636XXSP,2013-11-10 19:17:00,
2013-11-10 14:22:00,71.8,61.7,30.10,NNE,22,0.0,6.4,70,0.00,,,0.00,WUHU21636XXSP,2013-11-10 19:22:00,
2013-11-10 14:27:00,71.8,62.1,30.10,North,0,0.0,4.7,71,0.00,,,0.00,WUHU21636XXSP,2013-11-10 19:27:00,
2013-11-10 14:32:00,72.0,61.8,30.10,ESE,112,7.1,10.1,70,0.00,,,0.00,WUHU21636XXSP,2013-11-10 19:32:00,
2013-11-10 14:37:00,72.2,62.4,30.10,NE,45,0.0,10.1,71,0.00,,,0.00,WUHU21636XXSP,2013-11-10 19:37:00,
2013-11-10 14:42:00,72.2,62.0,30.10,ENE,67,0.0,8.6,70,0.00,,,0.00,WUHU21636XXSP,2013-11-10 19:42:00,
2013-11-10 14:47:00,72.8,62.6,30.10,North,0,0.0,5.6,70,0.00,,,0.00,WUHU21636XXSP,2013-11-10 19:47:00,
2013-11-10 14:52:00,73.0,62.8,30.10,North,0,0.0,6.8,70,0.00,,,0.00,WUHU21636XXSP,2013-11-10 19:52:00,
2013-11-10 14:57:00,73.4,63.2,30.10,NE,45,2.0,6.8,70,0.00,,,0.00,WUHU21636XXSP,2013-11-10 19:57:00,
2013-11-10 15:02:00,73.7,63.1,30.10,ENE,67,0.0,10.1,69,0.00,,,0.00,WUHU21636XXSP,2013-11-10 20:02:00,
2013-11-10 15:07:00,73.9,63.3,30.10,North,0,0.0,10.1,69,0.00,,,0.00,WUHU21636XXSP,2013-11-10 20:07:00,
2013-11-10 15:12:00,74.1,64.3,30.10,ENE,67,5.9,7.3,71,0.00,,,0.00,WUHU21636XXSP,2013-11-10 20:12:00,
2013-11-10 15:17:00,74.3,64.5,30.10,NNE,22,0.0,7.3,71,0.00,,,0.00,WUHU21636XXSP,2013-11-10 20:17:00,
2013-11-10 15:22:00,74.4,64.6,30.09,NE,45,0.0,6.9,71,0.00,,,0.00,WUHU21636XXSP,2013-11-10 20:22:00,
2013-11-10 15:27:00,74.0,64.6,30.10,ENE,67,0.0,7.1,72,0.00,,,0.00,WUHU21636XXSP,2013-11-10 20:27:00,
2013-11-10 15:32:00,73.8,64.2,30.10,ENE,67,0.0,7.1,72,0.00,,,0.00,WUHU21636XXSP,2013-11-10 20:32:00,
2013-11-10 15:37:00,73.6,64.0,30.10,ENE,67,0.0,10.7,73,0.00,,,0.00,WUHU21636XXSP,2013-11-10 20:37:00,
2013-11-10 15:42:00,73.2,64.4,30.10,NE,45,0.0,10.7,74,0.00,,,0.00,WUHU21636XXSP,2013-11-10 20:42:00,
2013-11-10 15:47:00,73.0,64.2,30.10,ENE,67,0.0,5.5,74,0.00,,,0.00,WUHU21636XXSP,2013-11-10 20:47:00,
2013-11-10 15:52:00,72.7,64.2,30.10,NE,45,0.0,6.9,75,0.00,,,0.00,WUHU21636XXSP,2013-11-10 20:52:00,
2013-11-10 15:57:00,72.3,63.9,30.10,ENE,67,0.0,7.2,75,0.00,,,0.00,WUHU21636XXSP,2013-11-10 20:57:00,
2013-11-10 16:02:00,72.1,64.0,30.10,East,90,3.1,8.3,76,0.00,,,0.00,WUHU21636XXSP,2013-11-10 21:02:00,
2013-11-10 16:07:00,72.0,63.9,30.10,NNE,22,0.0,8.3,76,0.00,,,0.00,WUHU21636XXSP,2013-11-10 21:07:00,
2013-11-10 16:12:00,71.8,63.7,30.10,ENE,67,0.0,7.2,76,0.00,,,0.00,WUHU21636XXSP,2013-11-10 21:12:00,
2013-11-10 16:17:00,71.8,63.7,30.10,NE,45,0.0,7.2,77,0.00,,,0.00,WUHU21636XXSP,2013-11-10 21:17:00,
2013-11-10 16:22:00,71.6,63.9,30.10,NE,45,0.0,5.6,77,0.00,,,0.00,WUHU21636XXSP,2013-11-10 21:22:00,
2013-11-10 16:27:00,71.4,63.7,30.10,ENE,67,2.2,5.6,77,0.00,,,0.00,WUHU21636XXSP,2013-11-10 21:27:00,
2013-11-10 16:32:00,71.2,63.1,30.10,ENE,67,0.0,5.2,76,0.00,,,0.00,WUHU21636XXSP,2013-11-10 21:32:00,
2013-11-10 16:37:00,71.2,63.1,30.10,ENE,67,5.4,6.4,76,0.00,,,0.00,WUHU21636XXSP,2013-11-10 21:37:00,
2013-11-10 16:42:00,71.1,63.0,30.10,ENE,67,0.0,7.4,76,0.00,,,0.00,WUHU21636XXSP,2013-11-10 21:42:00,
2013-11-10 16:47:00,70.7,63.0,30.10,ENE,67,0.0,7.4,77,0.00,,,0.00,WUHU21636XXSP,2013-11-10 21:47:00,
2013-11-10 16:52:00,70.5,63.1,30.10,NE,45,0.0,8.8,78,0.00,,,0.00,WUHU21636XXSP,2013-11-10 21:52:00,
2013-11-10 16:57:00,70.3,63.0,30.11,ENE,67,0.0,8.8,78,0.00,,,0.00,WUHU21636XXSP,2013-11-10 21:57:00,
2013-11-10 17:02:00,70.0,63.0,30.10,East,90,0.0,5.6,79,0.00,,,0.00,WUHU21636XXSP,2013-11-10 22:02:00,
2013-11-10 17:07:00,69.6,62.8,30.10,ESE,112,0.0,5.5,80,0.00,,,0.00,WUHU21636XXSP,2013-11-10 22:07:00,
2013-11-10 17:12:00,69.4,63.0,30.10,ESE,112,0.0,5.5,80,0.00,,,0.00,WUHU21636XXSP,2013-11-10 22:12:00,
2013-11-10 17:17:00,68.9,62.8,30.11,NE,45,0.0,3.5,81,0.00,,,0.00,WUHU21636XXSP,2013-11-10 22:17:00,
2013-11-10 17:22:00,68.7,62.6,30.11,ENE,67,0.0,4.0,81,0.00,,,0.00,WUHU21636XXSP,2013-11-10 22:22:00,
2013-11-10 17:27:00,68.4,62.2,30.11,ENE,67,1.6,5.4,81,0.00,,,0.00,WUHU21636XXSP,2013-11-10 22:27:00,
2013-11-10 17:32:00,68.0,61.9,30.12,ENE,67,0.0,5.4,81,0.00,,,0.00,WUHU21636XXSP,2013-11-10 22:32:00,
2013-11-10 17:37:00,67.8,62.1,30.11,ENE,67,0.0,3.6,82,0.00,,,0.00,WUHU21636XXSP,2013-11-10 22:37:00,
2013-11-10 17:42:00,67.6,61.9,30.11,ENE,67,0.0,1.1,82,0.00,,,0.00,WUHU21636XXSP,2013-11-10 22:42:00,
2013-11-10 17:47:00,67.1,61.7,30.11,ENE,67,0.0,1.1,83,0.00,,,0.00,WUHU21636XXSP,2013-11-10 22:47:00,
2013-11-10 17:52:00,66.9,61.5,30.11,ENE,67,0.0,0.0,84,0.00,,,0.00,WUHU21636XXSP,2013-11-10 22:52:00,
2013-11-10 17:57:00,66.7,61.7,30.11,ENE,67,0.0,0.0,84,0.00,,,0.00,WUHU21636XXSP,2013-11-10 22:57:00,
2013-11-10 18:02:00,66.4,61.3,30.11,ENE,67,0.0,1.2,85,0.00,,,0.00,WUHU21636XXSP,2013-11-10 23:02:00,
2013-11-10 18:07:00,66.4,61.3,30.12,ENE,67,0.0,1.2,85,0.00,,,0.00,WUHU21636XXSP,2013-11-10 23:07:00,
2013-11-10 18:12:00,66.4,61.3,30.11,ENE,67,0.0,2.2,85,0.00,,,0.00,WUHU21636XXSP,2013-11-10 23:12:00,
2013-11-10 18:17:00,66.0,61.3,30.12,ENE,67,0.0,3.1,85,0.00,,,0.00,WUHU21636XXSP,2013-11-10 23:17:00,
2013-11-10 18:22:00,66.0,61.3,30.12,ENE,67,0.0,3.9,85,0.00,,,0.00,WUHU21636XXSP,2013-11-10 23:22:00,
2013-11-10 18:27:00,65.8,61.2,30.12,ENE,67,0.0,3.9,85,0.00,,,0.00,WUHU21636XXSP,2013-11-10 23:27:00,
2013-11-10 18:32:00,65.5,61.2,30.13,ENE,67,0.0,3.0,86,0.00,,,0.00,WUHU21636XXSP,2013-11-10 23:32:00,
2013-11-10 18:37:00,65.5,61.2,30.13,ENE,67,0.0,0.0,86,0.00,,,0.00,WUHU21636XXSP,2013-11-10 23:37:00,
2013-11-10 18:42:00,65.1,61.2,30.13,ENE,67,0.0,0.0,87,0.00,,,0.00,WUHU21636XXSP,2013-11-10 23:42:00,
2013-11-10 18:47:00,65.1,61.2,30.13,ENE,67,0.0,0.0,87,0.00,,,0.00,WUHU21636XXSP,2013-11-10 23:47:00,
2013-11-10 18:52:00,64.9,61.0,30.13,ENE,67,0.0,0.8,87,0.00,,,0.00,WUHU21636XXSP,2013-11-10 23:52:00,
2013-11-10 18:57:00,64.8,60.8,30.13,ENE,67,0.0,0.8,87,0.00,,,0.00,WUHU21636XXSP,2013-11-10 23:57:00,
2013-11-10 19:02:00,64.6,61.0,30.13,ENE,67,0.0,0.0,88,0.00,,,0.00,WUHU21636XXSP,2013-11-11 00:02:00,
2013-11-10 19:07:00,64.4,60.8,30.13,ENE,67,0.0,0.0,88,0.00,,,0.00,WUHU21636XXSP,2013-11-11 00:07:00,
2013-11-10 19:12:00,64.2,60.6,30.13,ENE,67,0.0,0.0,88,0.00,,,0.00,WUHU21636XXSP,2013-11-11 00:12:00,
2013-11-10 19:17:00,64.0,60.4,30.13,ENE,67,0.0,0.0,88,0.00,,,0.00,WUHU21636XXSP,2013-11-11 00:17:00,
2013-11-10 19:22:00,64.0,60.4,30.13,ENE,67,0.0,0.0,88,0.00,,,0.00,WUHU21636XXSP,2013-11-11 00:22:00,
2013-11-10 19:27:00,64.0,60.4,30.13,ENE,67,0.0,0.0,88,0.00,,,0.00,WUHU21636XXSP,2013-11-11 00:27:00,
2013-11-10 19:32:00,63.7,60.1,30.13,ENE,67,0.0,0.0,89,0.00,,,0.00,WUHU21636XXSP,2013-11-11 00:32:00,
2013-11-10 19:37:00,63.7,60.1,30.13,ENE,67,0.0,0.0,89,0.00,,,0.00,WUHU21636XXSP,2013-11-11 00:37:00,
2013-11-10 19:42:00,63.7,60.1,30.13,ENE,67,0.0,0.0,89,0.00,,,0.00,WUHU21636XXSP,2013-11-11 00:42:00,
2013-11-10 19:47:00,63.5,60.3,30.13,ENE,67,0.0,0.0,89,0.00,,,0.00,WUHU21636XXSP,2013-11-11 00:47:00,
2013-11-10 19:52:00,63.5,60.3,30.13,ENE,67,0.0,0.0,89,0.00,,,0.00,WUHU21636XXSP,2013-11-11 00:52:00,
2013-11-10 19:57:00,63.3,60.1,30.13,ENE,67,0.0,0.0,89,0.00,,,0.00,WUHU21636XXSP,2013-11-11 00:57:00,
2013-11-10 20:02:00,63.3,60.1,30.13,ENE,67,0.0,0.0,89,0.00,,,0.00,WUHU21636XXSP,2013-11-11 01:02:00,
2013-11-10 20:07:00,63.0,59.7,30.13,ENE,67,0.0,0.0,90,0.00,,,0.00,WUHU21636XXSP,2013-11-11 01:07:00,
2013-11-10 20:12:00,62.8,59.9,30.13,ENE,67,0.0,0.0,90,0.00,,,0.00,WUHU21636XXSP,2013-11-11 01:12:00,
2013-11-10 20:17:00,62.4,59.7,30.13,ENE,67,0.0,0.0,91,0.00,,,0.00,WUHU21636XXSP,2013-11-11 01:17:00,
2013-11-10 20:22:00,62.2,59.5,30.14,ENE,67,0.0,0.0,91,0.00,,,0.00,WUHU21636XXSP,2013-11-11 01:22:00,
2013-11-10 20:27:00,61.9,59.2,30.13,ENE,67,0.0,0.0,91,0.00,,,0.00,WUHU21636XXSP,2013-11-11 01:27:00,
2013-11-10 20:32:00,61.7,59.4,30.14,ENE,67,0.0,0.0,92,0.00,,,0.00,WUHU21636XXSP,2013-11-11 01:32:00,
2013-11-10 20:37:00,61.5,59.2,30.14,ENE,67,0.0,0.0,92,0.00,,,0.00,WUHU21636XXSP,2013-11-11 01:37:00,
2013-11-10 20:42:00,61.5,59.2,30.14,ENE,67,0.0,0.0,92,0.00,,,0.00,WUHU21636XXSP,2013-11-11 01:42:00,
2013-11-10 20:47:00,61.3,59.0,30.14,ENE,67,0.0,0.0,92,0.00,,,0.00,WUHU21636XXSP,2013-11-11 01:47:00,
2013-11-10 20:52:00,61.3,59.0,30.14,ENE,67,0.0,0.0,93,0.00,,,0.00,WUHU21636XXSP,2013-11-11 01:52:00,
2013-11-10 20:57:00,61.2,59.0,30.14,ENE,67,0.0,0.0,93,0.00,,,0.00,WUHU21636XXSP,2013-11-11 01:57:00,
2013-11-10 21:02:00,61.0,58.8,30.14,ENE,67,0.0,0.0,93,0.00,,,0.00,WUHU21636XXSP,2013-11-11 02:02:00,
2013-11-10 21:07:00,60.6,58.5,30.14,ENE,67,0.0,0.0,93,0.00,,,0.00,WUHU21636XXSP,2013-11-11 02:07:00,
2013-11-10 21:12:00,60.6,58.5,30.14,ENE,67,0.0,0.0,93,0.00,,,0.00,WUHU21636XXSP,2013-11-11 02:12:00,
2013-11-10 21:17:00,60.4,58.3,30.14,ENE,67,0.0,0.0,93,0.00,,,0.00,WUHU21636XXSP,2013-11-11 02:17:00,
2013-11-10 21:22:00,60.4,58.3,30.14,ENE,67,0.0,0.0,94,0.00,,,0.00,WUHU21636XXSP,2013-11-11 02:22:00,
2013-11-10 21:27:00,60.4,58.3,30.14,ENE,67,0.0,0.0,94,0.00,,,0.00,WUHU21636XXSP,2013-11-11 02:27:00,
2013-11-10 21:32:00,60.3,58.5,30.14,ENE,67,0.0,0.0,94,0.00,,,0.00,WUHU21636XXSP,2013-11-11 02:32:00,
2013-11-10 21:37:00,60.1,58.3,30.14,ENE,67,0.0,0.0,94,0.00,,,0.00,WUHU21636XXSP,2013-11-11 02:37:00,
2013-11-10 21:42:00,59.9,58.1,30.14,ENE,67,0.0,0.0,94,0.00,,,0.00,WUHU21636XXSP,2013-11-11 02:42:00,
2013-11-10 21:47:00,59.9,58.1,30.14,ENE,67,0.0,0.0,94,0.00,,,0.00,WUHU21636XXSP,2013-11-11 02:47:00,
2013-11-10 21:52:00,59.9,58.1,30.14,ENE,67,0.0,0.0,94,0.00,,,0.00,WUHU21636XXSP,2013-11-11 02:52:00,
2013-11-10 21:57:00,59.9,58.1,30.14,ENE,67,0.0,0.0,94,0.00,,,0.00,WUHU21636XXSP,2013-11-11 02:57:00,
2013-11-10 22:02:00,59.7,57.9,30.14,ENE,67,0.0,0.0,94,0.00,,,0.00,WUHU21636XXSP,2013-11-11 03:02:00,
2013-11-10 22:07:00,59.7,57.9,30.14,ENE,67,0.0,0.0,95,0.00,,,0.00,WUHU21636XXSP,2013-11-11 03:07:00,
2013-11-10 22:12:00,59.7,57.9,30.14,ENE,67,0.0,0.0,95,0.00,,,0.00,WUHU21636XXSP,2013-11-11 03:12:00,
2013-11-10 22:17:00,59.7,57.9,30.15,ENE,67,0.0,0.0,95,0.00,,,0.00,WUHU21636XXSP,2013-11-11 03:17:00,
2013-11-10 22:22:00,59.5,58.1,30.15,ENE,67,0.0,0.0,95,0.00,,,0.00,WUHU21636XXSP,2013-11-11 03:22:00,
2013-11-10 22:27:00,59.5,58.1,30.15,ENE,67,0.0,0.0,95,0.00,,,0.00,WUHU21636XXSP,2013-11-11 03:27:00,
2013-11-10 22:32:00,59.4,57.9,30.15,ENE,67,0.0,0.0,95,0.00,,,0.00,WUHU21636XXSP,2013-11-11 03:32:00,
2013-11-10 22:37:00,59.2,57.7,30.15,ENE,67,0.0,0.0,95,0.00,,,0.00,WUHU21636XXSP,2013-11-11 03:37:00,
2013-11-10 22:42:00,59.2,57.7,30.15,ENE,67,0.0,0.0,95,0.00,,,0.00,WUHU21636XXSP,2013-11-11 03:42:00,
2013-11-10 22:47:00,59.2,57.7,30.14,ENE,67,0.0,0.0,94,0.00,,,0.00,WUHU21636XXSP,2013-11-11 03:47:00,
2013-11-10 22:52:00,58.8,57.4,30.14,ENE,67,0.0,0.0,95,0.00,,,0.00,WUHU21636XXSP,2013-11-11 03:52:00,
2013-11-10 22:57:00,59.2,57.7,30.14,ENE,67,0.0,0.0,95,0.00,,,0.00,WUHU21636XXSP,2013-11-11 03:57:00,
2013-11-10 23:02:00,59.2,57.7,30.14,ENE,67,0.0,0.0,95,0.00,,,0.00,WUHU21636XXSP,2013-11-11 04:02:00,
2013-11-10 23:07:00,59.0,57.6,30.14,ENE,67,0.0,0.0,95,0.00,,,0.00,WUHU21636XXSP,2013-11-11 04:07:00,
2013-11-10 23:12:00,58.8,57.4,30.14,ENE,67,0.0,0.0,95,0.00,,,0.00,WUHU21636XXSP,2013-11-11 04:12:00,
2013-11-10 23:17:00,58.6,57.2,30.14,ENE,67,0.0,0.0,95,0.00,,,0.00,WUHU21636XXSP,2013-11-11 04:17:00,
2013-11-10 23:22:00,58.6,57.2,30.14,ENE,67,0.0,0.0,95,0.00,,,0.00,WUHU21636XXSP,2013-11-11 04:22:00,
2013-11-10 23:27:00,58.6,57.2,30.14,ENE,67,0.0,0.0,95,0.00,,,0.00,WUHU21636XXSP,2013-11-11 04:27:00,
2013-11-10 23:32:00,58.6,57.2,30.14,ENE,67,0.0,0.0,95,0.00,,,0.00,WUHU21636XXSP,2013-11-11 04:32:00,
2013-11-10 23:37:00,58.6,57.2,30.14,ENE,67,0.0,0.0,95,0.00,,,0.00,WUHU21636XXSP,2013-11-11 04:37:00,
2013-11-10 23:42:00,58.6,57.2,30.14,ENE,67,0.0,0.0,95,0.00,,,0.00,WUHU21636XXSP,2013-11-11 04:42:00,
2013-11-10 23:47:00,58.6,57.2,30.14,ENE,67,0.0,0.0,95,0.00,,,0.00,WUHU21636XXSP,2013-11-11 04:47:00,
2013-11-10 23:52:00,58.3,56.8,30.14,ENE,67,0.0,0.0,95,0.00,,,0.00,WUHU21636XXSP,2013-11-11 04:52:00,
2013-11-10 23:57:00,58.3,56.8,30.14,ENE,67,0.0,0.0,95,0.00,,,0.00,WUHU21636XXSP,2013-11-11 04:57:00,